Preview of NWS' New Version of Forecast
This preview is not operational and should not be used for support decisions.
Latest weather observations around

St Clair County Airport (KPLR)

Using English Units (Switch to International System of Units)
Date/ Time (CDT) Wind (mph) Vis. (mi) Weather Sky Cond. Temp (°F) Rel. Humidity Wind Chill (°F) Heat Index (°F) Pressure Precip. (in)
Air Dwpt 6 hour Altimeter (inHg) Sea level (inHg) 1 hr 3 hr 6 hr
Max Min
Apr 21 13:35 E 12 10 Clear   73 45     36%   72 30.24        
Apr 21 13:15 E 8 10 Clear   73 45     36%   72 30.24        
Apr 21 12:55 SSE 8 10 Clear   72 41     33%   70 30.25        
Apr 21 12:35 E 6 10 Clear   72 41     33%   70 30.26        
Apr 21 12:15 6 10 Clear   72 39     31%   70 30.26        
Apr 21 11:55 E 8 10 Clear   70 39     33%     30.27        
Apr 21 11:35 6 10 Clear   70 39     33%     30.28        
Apr 21 11:15 E 10 10 Clear   68 37     32%     30.28        
Apr 21 10:55 E 8 10 Clear   68 39     35%     30.29        
Apr 21 10:35 ESE 8 10 Clear   66 39     37%     30.29        
Apr 21 10:15 ENE 7 10 Clear   64 43     45%     30.3        
Apr 21 09:55 5 10 Clear   63 43     48%     30.31        
Apr 21 09:35 6 10 Clear   61 45     55%     30.31        
Apr 21 09:15 5 10 Clear   57 45     63%     30.31        
Apr 21 08:55 N 5 10 Clear   55 46     72%     30.31        
Apr 21 08:35 Calm 10 Clear   54 46     77%     30.31        
Apr 21 08:15 Calm 10 Clear   50 46     87%     30.32        
Apr 21 07:55 Calm 10 Clear   46 45     93%     30.32        
Apr 21 07:35 Calm 7 Clear   41 41     100%     30.32        
Apr 21 07:15 Calm 6 Clear   37 37     100%     30.31        
Apr 21 06:55 Calm 8 Clear   37 37     100%     30.3        
Apr 21 06:35 Calm 5 Clear   36 36     100%     30.29        
Apr 21 06:15 Calm 4 Clear   36 36     100%     30.3        
Apr 21 05:55 Calm 6 Clear   36 36     100%     30.29        
Apr 21 05:35 Calm 7 Clear   36 36     100%     30.28        
Apr 21 05:15 Calm 7 Clear   36 36     100%     30.28        
Apr 21 04:55 Calm 6 Clear   37 37     100%     30.28        
Apr 21 04:35 Calm 7 Clear   37 37     100%     30.28        
Apr 21 04:15 Calm 7 Clear   37 37     100%     30.28        
Apr 21 03:55 Calm 8 Clear   37 37     100%     30.28        
Apr 21 03:35 Calm 7 Clear   37 37     100%     30.27        
Apr 21 03:15 Calm 6 Clear   37 37     100%     30.27        
Apr 21 02:55 Calm 6 Clear   37 37     100%     30.28        
Apr 21 02:35 Calm 7 Clear   37 37     100%     30.28        
Apr 21 02:15 Calm 6 Clear   37 37     100%     30.29        
Apr 21 01:55 Calm 7 Clear   39 39     100%     30.28        
Apr 21 01:35 Calm 7 Clear   39 39     100%     30.28        
Apr 21 01:15 Calm 7 Clear   39 39     100%     30.28        
Apr 21 00:55 Calm 9 Clear   39 39     100%     30.27        
Apr 21 00:35 Calm 8 Clear   39 39     100%     30.27        
Apr 21 00:15 Calm 8 Clear   41 41     100%     30.28        
Apr 20 23:55 Calm 8 Clear   41 41     100%     30.28        
Apr 20 23:35 Calm 8 Clear   41 41     100%     30.27        
Apr 20 23:15 Calm 10 Clear   41 41     100%     30.27        
Apr 20 22:55 Calm 10 Clear   43 43     100%     30.26        
Apr 20 22:35 Calm 10 Clear   43 41     93%     30.26        
Apr 20 22:15 Calm 10 Clear   43 43     100%     30.26        
Notice The following observation data may not be complete
Apr 20 21:55 Calm 10 Clear     43      %     30.27        
Notice The following observation data may not be complete
Apr 20 21:35 Calm 10 Clear     43      %     30.27        
Apr 20 21:15 Calm 10 Clear   46 43     87%     30.27        
Notice The following observation data may not be complete
Apr 20 20:55 Calm 10 Clear     43      %     30.27        
Apr 20 20:35 Calm 10 Clear   48 43     81%     30.27        
Apr 20 20:15 Calm 10 Clear   50 43     76%     30.26        
Notice The following observation data may not be complete
Apr 20 19:55 Calm 10 Clear     43      %     30.26        
Apr 20 19:35 Calm 10 Clear   55 43     62%     30.26        
Apr 20 19:15 Calm 10 Clear   61 39     45%     30.26        
Apr 20 18:55 N 6 10 Clear   63 39     42%     30.25        
Apr 20 18:35 N 8 10 Clear   66 39     37%     30.25        
Apr 20 18:15 N 8 10 Clear   68 37     32%     30.25        
Apr 20 17:55 N 7 10 Clear   68 36     30%     30.25        
Apr 20 17:35 NNE 8 10 Clear   70 34     26%     30.25        
Apr 20 17:15 N 7 10 Clear   70 36     28%     30.25        
Apr 20 16:55 N 10 10 Clear   70 36     28%     30.25        
Apr 20 16:35 NE 8 10 Clear   70 34     26%     30.26        
Apr 20 16:15 N 6 10 Clear   70 34     26%     30.26        
Apr 20 15:55 N 7 10 Clear   70 34     26%     30.26        
Apr 20 15:35 NE 8 10 Clear   70 34     26%     30.27        
Apr 20 15:15 NNE 6 10 Clear   70 34     26%     30.27        
Apr 20 14:55 N 8 10 Clear   68 32     26%     30.28        
Apr 20 14:35 NNE 8 10 Clear   68 34     28%     30.29        
Apr 20 14:15 N 10 10 Clear   68 34     28%     30.3        
Apr 20 13:55 NNE 8 10 Clear   68 32     26%     30.31        
Apr 20 13:35 N 8 7 Clear   66 34     30%     30.31        
Apr 20 13:15 N 6   Clear   66 32     28%     30.32        
Apr 20 12:55 NNE 9 10 Clear   64 32     30%     30.33        
Apr 20 12:35 NNE 10 10 Clear   64 32     30%     30.33        
Apr 20 12:15 NNE 8 10 Clear   63 32     32%     30.34        
Apr 20 11:55 NNE 10 10 Clear   63 30     29%     30.35        
Apr 20 11:35 NE 8 10 Clear   61 30     31%     30.35        
Apr 20 11:15 ENE 8 10 Clear   61 32     34%     30.35        
Apr 20 10:55 7 10 Clear   59 30     33%     30.35        
Apr 20 10:35 E 9 10 Clear   59 30     33%     30.35        
Apr 20 10:15 E 9 10 Clear   57 32     38%     30.34        
Apr 20 09:55 NNE 8 10 Clear   55 36     47%     30.34        
Apr 20 09:35 NNE 8 10 Clear   54 36     50%     30.35        
Apr 20 09:15 NE 8 10 Clear   52 36     54%     30.35        
Apr 20 08:55 ENE 10 10 Clear   50 36     58% 46   30.35        
Apr 20 08:35 NE 9 10 Clear   48 36     62% 44   30.35        
Apr 20 08:15 ENE 10 10 Clear   48 34     57% 44   30.34        
Apr 20 07:55 NE 10 10 Clear   46 34     61% 41   30.34        
Apr 20 07:35 NE 10 10 Clear   45 34     66% 39   30.35        
Apr 20 07:15 NE 5 10 Clear   45 36     70% 42   30.35        
Apr 20 06:55 NNE 7 10 Clear   41 36     81% 36   30.34        
Apr 20 06:35 NNE 5 10 Clear   39 34     81% 36   30.32        
Apr 20 06:15 NNE 5 10 Clear   39 34     81% 36   30.31        
Apr 20 05:55 N 6 10 Clear   37 34     87% 33   30.3        
Apr 20 05:35     Clear   39 34     81%     30.29        
Apr 20 05:15 N 6 10 Clear   39 34     81% 35   30.29        
Apr 20 04:55 N 5 10 Clear   39 34     81% 36   30.28        
Apr 20 04:35 N 5 10 Clear   39 34     81% 36   30.28        
Apr 20 04:15 N 6 10 Clear   39 34     81% 35   30.27        
Apr 20 03:55 N 6 10 Clear   41 34     75% 37   30.27        
Apr 20 03:15 N 9 10 Clear   43 34     70% 37   30.25        
Apr 20 02:55 NNE 9   Clear   43 34     70% 37   30.25        
Apr 20 02:35 NNE 9 10 Clear   43 34     70% 37   30.24        
Apr 20 02:15 N 9 10 Clear   45 34     66% 40   30.24        
Apr 20 01:55 NNE 9 10 Clear   45 34     66% 40   30.24        
Apr 20 01:35 NNE 10 10 Clear   46 34     61% 41   30.24        
Apr 20 01:15 NNE 13 10 Clear   46 34     61% 41   30.23        
Apr 20 00:55 NNE 13 10 Clear   46 34     61% 41   30.23        
Apr 20 00:35 N 10 10 Clear   46 34     61% 41   30.24        
Apr 20 00:15 N 8 10 Clear   45 36     70% 40   30.24        
Apr 19 23:55 N 6 10 Clear   45 36     70% 41   30.25        
Apr 19 23:35 N 7 10 Clear   45 36     70% 41   30.24        
Apr 19 23:15 N 8 10 Clear   46 34     61% 42   30.25        
Apr 19 22:55 N 8 10 Clear   46 34     61% 42   30.25        
Apr 19 22:35 N 8 10 Clear   48 34     57% 45   30.25        
Apr 19 21:55 N 6 10 Clear   48 34     57% 46   30.26        
Apr 19 21:35 N 7 10 Clear   48 34     57% 45   30.26        
Apr 19 21:15 N 7 10 Clear   50 34     54% 47   30.26        
Apr 19 20:35 NNW 6 10 Clear   50 34     54% 48   30.26        
Apr 19 20:15 NNW 5 10 Clear   52 34     50%     30.25        
Apr 19 19:55 NNW 6 10 Clear   52 34     50%     30.24        
Apr 19 19:35 NNW 7 10 Clear   52 34     50%     30.23        
Apr 19 19:15 N 7 10 Clear   54 34     47%     30.22        
Apr 19 18:55 N 12 10 Clear   55 34     44%     30.22        
Apr 19 18:35 N 14 10 Clear   57 34     41%     30.21        
Apr 19 18:15 NNW 8 10 Clear   57 34     41%     30.2        
Apr 19 17:55 N 14 10 Clear   59 36     41%     30.19        
Apr 19 17:35 N 10 10 Clear   59 36     41%     30.19        
Apr 19 17:15 N 13 10 Clear   61 36     39%     30.19        
Apr 19 16:55 N 8 10 Clear   61 37     42%     30.19        
Apr 19 16:35 N 10 10 Clear   61 37     42%     30.19        
Apr 19 16:15 NNW 13 10 Clear   61 39     45%     30.19        
Apr 19 15:55 N 13 10 Clear   61 39     45%     30.19        
Apr 19 15:35 N 14 10 Clear   63 41     45%     30.19        
Apr 19 15:15 NNE 13 10 Clear   61 41     48%     30.19        
Apr 19 14:55 NNW 9 10 Clear   63 41     45%     30.18        
Apr 19 14:35 N 9 10 Clear   63 41     45%     30.18        
Apr 19 14:15 WNW 10 10 Clear   63 39     42%     30.18        
Apr 19 13:55 NNW 10 10 Clear   64 41     42%     30.19        
Apr 19 13:35 NW 8 10 Clear   63 41     45%     30.18        
Apr 19 13:15 N 12 10 Clear   64 41     42%     30.18        
Apr 19 12:55 NNW 10 10 Clear   63 39     42%     30.17        
Apr 19 12:35 N 9 10 Clear   63 41     45%     30.17        
Apr 19 12:15 NW 14 10 Clear   63 39     42%     30.17        
Apr 19 11:55 N 12 10 Clear   63 41     45%     30.16        
Apr 19 11:35 WNW 12 10 Clear   63 41     45%     30.16        
Apr 19 11:15 NNW 6 10 Clear   63 41     45%     30.16        
Apr 19 10:55 5 10 Clear   63 41     45%     30.15        
Apr 19 10:35   10 Clear   61 41     48%     30.14        
Apr 19 10:15 NNW 10 10 Clear   61 41     48%     30.14        
Apr 19 09:35 NNW 8 10 Clear   61 43     51%     30.12        
Apr 19 09:15 8 10 Clear   61 43     51%     30.11        
Apr 19 08:55 N 10 10 Clear   61 43     51%     30.1        
Apr 19 08:35 NNW 12 10 Clear   59 43     55%     30.1        
Apr 19 08:15 NW 9 10 Clear   59 43     55%     30.09        
Apr 19 07:55 NW 10 10 Clear   59 43     55%     30.09        
Apr 19 07:35 NNW 12 10 Clear   59 41     51%     30.08        
Apr 19 06:55 NW 6 10 Clear   59 43     55%     30.06        
Apr 19 06:35 5 10 Clear   59 43     55%     30.05        
Apr 19 05:55 NW 6 10 Clear   59 45     59%     30.03        
Apr 19 05:35 NW 5 10 Clear   61 46     59%     30.01        
Apr 19 05:15 NW 8 10 Clear   63 48     59%     30        
Apr 19 04:55 NW 7 10 Clear   63 52     68%     29.99        
Apr 19 04:15 6 10 Clear   64 59     83%     29.97        
Apr 19 03:55 WNW 5 10 Clear   66 61     83%     29.97        
Apr 19 03:35 WNW 5 10 Clear   66 61     83%     29.96        
Apr 19 03:15 W 5 10 Clear   66 61     83%     29.95        
Apr 19 02:55 SW 5 10 Clear   64 61     88%     29.95        
Apr 19 02:35 SW 6 10 Clear   66 61     83%     29.95        
Apr 19 02:15 WSW 5 10 Clear   66 61     83%     29.95        
Apr 19 01:55 SW 6 10 Clear   64 61     88%     29.95        
Apr 19 01:35 SW 5 10 Clear   64 61     88%     29.95        
Apr 19 01:15 SW 6 10 Clear   66 61     83%     29.96        
Apr 19 00:35 SW 6 10 Clear   68 61     78%     29.97        
Apr 19 00:15 SW 6 10 Clear   68 61     78%     29.98        
Apr 18 23:55 SW 7 10 Clear   70 61     73%     29.98        
Apr 18 23:35 WSW 6 10 Clear   70 61     73%     29.98        
Apr 18 23:15 WSW 6 10 Clear   70 59     69%     29.98        
Apr 18 22:55 SW 5 10 Clear   68 59     73%     29.97        
Apr 18 22:35 SSW 3 10 Clear   68 59     73%     29.97        
Apr 18 22:15 SW 6 10 Clear   70 57     64%     29.97        
Apr 18 21:55 SW 5 10 Clear   70 59     69%     29.97        
Apr 18 21:35 SW 5 10 Clear   68 59     73%     29.96        
Apr 18 21:15 Calm 10 Clear   64 59     83%     29.96        
Apr 18 20:55 Calm 10 Clear   64 57     77%     29.95        
Apr 18 20:35 Calm 10 Clear   66 57     73%     29.95        
Apr 18 20:15 Calm 10 Clear   70 57     64%     29.94        
Apr 18 19:55 SW 6 10 Clear   73 55     53%   73 29.94        
Apr 18 19:35 SW 7 10 Clear   75 55     50%   75 29.94        
Apr 18 19:15 SW 9 10 Clear   75 55     50%   75 29.93        
Apr 18 18:55 SW 8 10 Clear   77 54     44%   76 29.93        
Apr 18 18:35 SW 9 10 Clear   77 55     47%   77 29.92        
Apr 18 18:15 SW 7 10 Clear   79 55     45%   78 29.92        
Apr 18 17:55 SW 14 10 Clear   79 55     45%   78 29.92        
Apr 18 17:35 SW 12 10 Clear   81 55     42%   81 29.91        
Apr 18 17:15 SSW 16 10 Clear   81 55     42%   81 29.91        
Apr 18 16:55 SW 14 10 Clear   81 54     39%   80 29.92        
Apr 18 16:35   10 Clear   81 54     39%   80 29.92        
Apr 18 16:15 SSW 16 10 Clear   81 54     39%   80 29.91        
Apr 18 15:55 SW 16 10 Clear   81 54     39%   80 29.92        
Apr 18 15:35   10 Clear   81 54     39%   80 29.92        
Apr 18 15:15   10 Clear   81 55     42%   81 29.93        
Apr 18 14:55 SSW 16 10 Clear   81 55     42%   81 29.94        
Apr 18 14:35 SSW 15 10 Clear   81 54     39%   80 29.95        
Apr 18 14:15   10 Clear   79 52     39%   78 29.96        
Apr 18 13:55 SSW 17 10 Clear   79 55     45%   78 29.96        
Apr 18 13:35 SSW 16 10 Clear   77 54     44%   76 29.97        
Apr 18 13:15   10 Clear   77 55     47%   77 29.98